Change the Weather History Date:

Thursday, September 25, 2014

  Actual Average Record
Temperature  
Mean Temperature 66 °F 48 °F  
Max Temperature 84 °F 64 °F 86 °F (2001)
Min Temperature 47 °F 32 °F 13 °F (1926)
Degree Days  
Heating Degree Days 0 17  
Month to date heating degree days 292 303  
Since 1 July heating degree days 455 531  
Cooling Degree Days 1 0  
Month to date cooling degree days 1 0  
Year to date cooling degree days 78 79  
Growing Degree Days 15 (Base 50)    
Moisture  
Dew Point 33 °F    
Average Humidity 37    
Maximum Humidity 61    
Minimum Humidity 13    
Precipitation  
Precipitation 0.00 in 0.03 in 0.69 in (2013)
Month to date precipitation 0.07 0.85  
Year to date precipitation 11.54 10.73  
Snow  
Snow 0.00 in - - ()
Month to date snowfall 0.0  
Year to date snowfall 0.0  
Since 1 July snowfall 0.0  
Snow Depth 0.00 in    
Sea Level Pressure  
Sea Level Pressure 29.82 in    
Wind  
Wind Speed 12 mph (South)    
Max Wind Speed 32 mph    
Max Gust Speed 39 mph    
Visibility 10 miles    
Events      
T = Trace of Precipitation, MM = Missing Value Source: NWS Daily Summary

Daily Weather History Graph

Daily Weather History Graph

Search for Another Location

Airport or City:

Trip Planner

Search our weather history database for the weather conditions in past years. The results will help you decide how hot, cold, wet, or windy it might be!

Date:

Astronomy

Sep. 25, 2014 Rise Set
Actual Time 7:20 AM MDT 7:21 PM MDT
Civil Twilight 6:51 AM MDT 7:51 PM MDT
Nautical Twilight 6:16 AM MDT 8:26 PM MDT
Astronomical Twilight 5:40 AM MDT 9:01 PM MDT
Moon 8:47 AM MDT (9/25) 8:01 PM MDT (9/25)
Length of Visible Light 13h 00m
Length of Day
12h 00m
New Moon, 2% of the Moon is Illuminated
Sep 25
New Moon
Oct 1
First Quarter
Oct 8
Full
Oct 15
Last Quarter
Oct 23
New

Hourly Weather History & Observations

Time (MDT) Temp. Dew Point Humidity Pressure Visibility Wind Dir Wind Speed Gust Speed Precip Events Conditions
12:53 AM 73.0 °F 37.9 °F 28% 29.85 in 10.0 mi South 20.7 mph 28.8 mph N/A   Clear
1:53 AM 70.0 °F 37.9 °F 31% 29.86 in 10.0 mi South 11.5 mph - N/A   Clear
2:53 AM 63.0 °F 37.0 °F 38% 29.87 in 10.0 mi South 11.5 mph - N/A   Clear
3:53 AM 60.1 °F 36.0 °F 41% 29.87 in 10.0 mi Variable 4.6 mph - N/A   Clear
4:53 AM 53.1 °F 36.0 °F 52% 29.90 in 10.0 mi ESE 6.9 mph - N/A   Clear
5:53 AM 51.1 °F 36.0 °F 56% 29.90 in 10.0 mi SE 3.5 mph - N/A   Clear
6:53 AM 48.9 °F 36.0 °F 61% 29.91 in 10.0 mi Calm Calm - N/A   Clear
7:53 AM 48.0 °F 36.0 °F 63% 29.92 in 10.0 mi South 6.9 mph - N/A   Clear
8:53 AM 52.0 °F 37.0 °F 57% 29.92 in 10.0 mi SE 4.6 mph - N/A   Clear
9:53 AM 64.0 °F 39.0 °F 40% 29.89 in 10.0 mi Calm Calm - N/A   Clear
10:53 AM 73.0 °F 37.9 °F 28% 29.85 in 10.0 mi North 4.6 mph - N/A   Clear
11:53 AM 78.1 °F 36.0 °F 22% 29.82 in 10.0 mi SSE 8.1 mph - N/A   Clear
12:53 PM 81.0 °F 33.1 °F 18% 29.78 in 10.0 mi SSW 21.9 mph 28.8 mph N/A   Clear
1:02 PM 81.0 °F 33.1 °F 18% 29.99 in 10.0 mi SSW 16.1 mph 27.6 mph N/A   Clear
1:53 PM 82.9 °F 30.9 °F 15% 29.75 in 10.0 mi South 23.0 mph 31.1 mph N/A   Clear
2:53 PM 82.0 °F 28.0 °F 14% 29.75 in 10.0 mi South 18.4 mph 32.2 mph N/A   Clear
3:53 PM 82.9 °F 26.1 °F 13% 29.74 in 10.0 mi South 25.3 mph 38.0 mph N/A   Clear
4:53 PM 82.0 °F 27.0 °F 13% 29.75 in 10.0 mi South 26.5 mph 38.0 mph N/A   Clear
5:53 PM 80.1 °F 28.0 °F 15% 29.75 in 10.0 mi SSE 21.9 mph 34.5 mph N/A   Clear
6:53 PM 78.1 °F 30.0 °F 17% 29.76 in 10.0 mi SSE 21.9 mph - N/A   Clear
7:53 PM 72.0 °F 32.0 °F 23% 29.79 in 10.0 mi SSE 12.7 mph - N/A   Clear
8:53 PM 71.1 °F 30.9 °F 23% 29.77 in 10.0 mi SSE 12.7 mph - N/A   Clear
9:53 PM 66.9 °F 30.9 °F 26% 29.74 in 10.0 mi SSW 6.9 mph - N/A   Clear
10:53 PM 69.1 °F 32.0 °F 25% 29.70 in 10.0 mi SSW 6.9 mph - N/A   Clear
11:53 PM 73.0 °F 32.0 °F 22% 29.66 in 10.0 mi South 15.0 mph 21.9 mph N/A   Partly Cloudy